Regional Weather Roundup
Issued by NWS

Home | Current Version | Previous Version | Text Only | Print | Product List | Glossary Off
Versions: 1 2 3 4 5 6 7 8 9 10 11 12 13 14 15 16 17 18 19 20 21 22 23 24 25 26 27 28 29 30 31 32 33 34 35 36 37 38 39 40 41 42 43 44 45 46 47 48 49 50

000
ASUS43 KIND 230309
RWRIN

WEATHER ROUNDUP FOR INDIANA
NATIONAL WEATHER SERVICE INDIANAPOLIS IN
1100 PM EDT MON MAY 22 2017

NOTE: "FAIR" INDICATES FEW OR NO CLOUDS BELOW 12,000 FEET WITH NO
SIGNIFICANT WEATHER AND/OR OBSTRUCTIONS TO VISIBILITY.

* - STATION DOES NOT REPORT WEATHER SUCH AS PRECIPITATION OR FOG.

+ - STATION NOT QUALITY CONTROLLED BY THE NATIONAL WEATHER SERVICE.
    USE DATA WITH CAUTION...ESPECIALLY DEWPOINT AND RELATIVE
    HUMIDITY OBSERVATIONS.

INZ001>003-010>013-019-020-230400-
NORTHWEST INDIANA

CITY           SKY/WX    TMP DP  RH WIND       PRES   REMARKS
GARY /AIRPORT/ CLOUDY    66  48  52 W17       29.94F
KNOX *+        CLOUDY    63  39  42 W9        29.95S
LA PORTE +     CLOUDY    62  50  63 W8        29.95F
MICHIGAN CITY+ CLOUDY    63  50  63 SW9       29.94F
MONTICELLO +   PTCLDY    62  50  64 SW3       29.96S
RENSSELAER +   CLOUDY    61  50  67 W6        29.96F
VALPARAISO     CLOUDY    64  52  64 SW10      29.94F

$$

LMZ046-743>745-230400-
SOUTHERN LAKE MICHIGAN

STATION/POSITION TIME  TEMP    WIND        PRES    WAVE
                       AIR SEA DIR/SP/G            HT
                 (UTC) (F)     (DEG/KT/KT) (MB)    (FT)
BURNS HARBOR     0240   64     230/ 11/ 15 1014.2S
MICHIGAN CITY    0240   64     210/ 18/ 21   N/A
5NW MICH CITY    0300   59 53  240/ 10/ 14   N/A     2

$$

INZ004-005-014>016-021>024-230400-
NORTH CENTRAL INDIANA

CITY           SKY/WX    TMP DP  RH WIND       PRES   REMARKS
GOSHEN         CLEAR     62  48  60 S9        29.94F
LOGANSPORT +   CLOUDY    57  52  82 S5        29.97S
PERU/GRISSOM   CLOUDY    60  54  78 S5        29.95F
ROCHESTER +    CLOUDY    64  50  59 S3        29.96F
SOUTH BEND     CLEAR     63  47  55 SW12      29.94F
WARSAW +       CLOUDY    61  46  59 CALM      29.96F

$$

INZ006>009-017-018-025>027-230400-
NORTHEAST INDIANA

CITY           SKY/WX    TMP DP  RH WIND       PRES   REMARKS
ANGOLA *+      CLEAR     61  52  72 CALM      29.96F
AUBURN +       PTCLDY    55  50  82 CALM      29.98F
FORT WAYNE     MOCLDY    59  49  69 S6        29.98F
HUNTINGTON +   CLEAR     56  53  88 CALM      29.97S
KENDALLVILLE + PTCLDY    59  50  70 S5        29.96F

$$

INZ028-029-035-036-043>045-051>053-230400-
WEST CENTRAL INDIANA

CITY           SKY/WX    TMP DP  RH WIND       PRES   REMARKS
CRAWFORDSVL +  CLOUDY    55  53  92 CALM      29.99R
GREENCASTLE +  CLOUDY    55  50  82 CALM      30.00S
LAFAYETTE      PTCLDY    59  52  77 W5        29.97R
TERRE HAUTE    CLOUDY    59  54  83 CALM      29.99R

$$

INZ030>032-037>040-046>048-054>057-064-065-230400-
CENTRAL INDIANA

CITY           SKY/WX    TMP DP  RH WIND       PRES   REMARKS
CP ATTERBURY + CLOUDY    55  50  82 CALM      30.01S
FISHERS *+     CLOUDY    59  52  77 S6        29.99S
FRANKFORT +    CLOUDY    62  54  73 CALM      30.00R
GREENWOOD *+   CLOUDY    62  47  58 S7        30.00S
INDIANAPOLIS   CLOUDY    63  47  55 S12       29.99R
-EAGLE CREEK   CLOUDY    61  49  64 SE3       29.99R
KOKOMO +       CLOUDY    59  54  83 S6        29.98F
MARION +       CLOUDY    55  50  82 S5        29.99F
MT COMFORT *+  CLOUDY    61  48  63 S5        30.01R
SHELBYVILLE    CLOUDY    63  49  60 S3        30.00R
ZIONSVILLE +   CLOUDY    56  52  88 CALM      30.00R

$$

INZ033-034-041-042-049-050-058-059-230400-
EAST CENTRAL INDIANA

CITY           SKY/WX    TMP DP  RH WIND       PRES   REMARKS
MUNCIE         CLOUDY    62  47  57 S3        29.99F
RICHMOND +     CLOUDY    55  52  88 S5        30.03R

$$

INZ060-061-067>069-081>083-085>088-230400-
SOUTHWEST INDIANA

CITY           SKY/WX    TMP DP  RH WIND       PRES   REMARKS
EVANSVILLE     CLOUDY    64  51  62 NE3       29.99F
HUNTINGBURG *+ CLOUDY    60  54  80 CALM      30.00S
WASHINGTON +   CLOUDY    61  53  75 S3        29.99S

$$

INZ062-063-066-070>080-084-089>092-230400-
SOUTH CENTRAL AND SOUTHEAST INDIANA

CITY           SKY/WX    TMP DP  RH WIND       PRES   REMARKS
BEDFORD +      CLOUDY    57  50  77 CALM      30.00R
BLOOMINGTON    CLOUDY    59  51  75 CALM      30.00R
MADISON *+     CLOUDY    55  52  88 CALM      30.03S
NORTH VERNON + CLOUDY    55  48  76 CALM      30.02S
SEYMOUR +      CLOUDY    61  52  72 E3        30.01S

$$





USA.gov is the U.S. government's official web portal to all federal, state and local government web resources and services.